Location: Albuquerque Trailhead
(34.7934°N, 106.3736°W)
Time: 22:39:58
(UTC+00:00)

BREEZE-M DEB (TANK) - Pass Details

Date: 20 June 2021
Orbit: 431 x 13231 km, 46.0° (Epoch: 01 August)

Event Time Altitude Azimuth Distance (km) Brightness Sun altitude
Exits shadow 09:38:39 40° 182° (S) 1,193 4.1 -21.6°
Maximum altitude 09:39:40 46° 148° (SSE) 971 3.8 -21.5°
Drops below altitude 10° 09:42:53 10° 72° (ENE) 1,713 6.1 -21.0°
Sets 09:44:29 0° 65° (ENE) 2,447 7.2 -20.8°
